Weather WX

World > North America > United States > Ohio

Mount Eaton, Ohio Regional Weather

Lat: 40.70N, Lon: 81.7W
Wx Zone: OHZ031
Warning FLW WEATHER ALERT - (More Info. Click Here) Warning
Feedback

Mount Eaton, OH Regional Weather

Expires:201906251500;;055405
ASUS41 KCLE 251402
RWRCLE
OHIO REGIONAL WEATHER ROUNDUP
NATIONAL WEATHER SERVICE CLEVELAND, OH
1000 AM EDT TUE JUN 25 2019

NOTE: "FAIR" INDICATES FEW OR NO CLOUDS BELOW 12,000 FEET WITH NO
SIGNIFICANT WEATHER AND/OR OBSTRUCTIONS TO VISIBILITY.


OHZ009>014-019>023-028>033-038-089-251500-
   NORTHEAST OHIO
  
CITY           SKY/WX    TMP DP  RH WIND       PRES   REMARKS
CLE-HOPKINS    FAIR      74  61  63 W17G24    29.91R                  
CLE-LAKEFRONT  FAIR      73  62  68 W13G23    29.87R                  
CUY CO. ARPT   MOSUNNY   72  61  68 W18G26    29.89R                  
LORAIN-ELYRIA  FAIR      73  56  54 W9G22     29.91R                  
ASHTABULA      FAIR      73  62  68 W13       29.88R                  
AKRON-CANTON   FAIR      74  61  63 W14       29.93R                  
WOOSTER        FAIR      72  62  71 W13       29.94R                  
MANSFIELD      FAIR      72  61  68 W10G21    29.94R                  
YOUNGSTOWN     PTSUNNY   73  60  63 SW13G22   29.90R                  
$$


SKY/WX - Weather  TMP - Temperature  DP - Dew Point  RH - Relative Humidity
WIND - Wind Direction/Speed PRES - Barometric Pressure VSB - Visibility
WCI - Wind Chill Index E13G22 Wind - East Wind 13 mph/Gusts of 22 mph